weather.gov     
National Weather Service

Regional Weather Roundup
NWS Homepage
This page is being discontinued on March 12, 2014.
The same data is available at this site. Please update your bookmarks.
Thank you, and we apologize for the inconvenience.
Please send an email to SR-SRH.Webmaster@noaa.gov with any concerns.


Current Version
Previous Version:    01  02  03  04  05  06  07  08  09  10  11  12  13  14  15  16  17  18  19  20  21  22  23  24  25  26  27  28  29  30  
   31  32  33  34  35  36  37  38  39  40  41  42  43  44  45  46  47  48  49  50  51  52  53  54  55  56  57  58  59  60  
[Printable]
367
ASUS44 KSJT 301910
RWRSJT
WEST CENTRAL TEXAS REGIONAL WEATHER ROUNDUP
NATIONAL WEATHER SERVICE SAN ANGELO TX
200 PM CDT WED JUL 30 2014

NOTE: "FAIR" INDICATES FEW OR NO CLOUDS BELOW 12,000 FEET WITH NO
SIGNIFICANT WEATHER AND/OR OBSTRUCTIONS TO VISIBILITY.

TXZ049-054-064>066-071>073-076>078-098-099-113-114-127-128-139-140-
154-155-168>170-302000
...LOCATIONS ACROSS WEST CENTRAL TEXAS...

CITY           SKY/WX    TMP DP  RH WIND       PRES   REMARKS
SAN ANGELO     MOSUNNY   98  54  22 S16G24    29.96F
ABILENE        PTSUNNY   92  63  38 S20G26    29.97F
DYESS AFB      CLOUDY    91  62  37 S18G24    29.96F
JUNCTION       SUNNY     95  54  25 S13       29.99F
SWEETWATER     PTSUNNY   95  56  27 S15G22    30.01F
BROWNWOOD      PTSUNNY   93  57  29 S17       29.99F
COLEMAN        MOCLDY    95  56  26 S12G22    29.98F
SONORA         MOSUNNY   95  54  24 S14G21    30.04F
OZONA          FAIR      95  55  26 S15G23    30.03F
BRADY          SUNNY     95  57  28 S9G23     29.99F
$$

TEXAS PANHANDLE/OKLAHOMA PANHANDLE

CITY           SKY/WX    TMP DP  RH WIND       PRES   REMARKS
AMARILLO       PTSUNNY   81  63  54 NW16G26   30.09S
BORGER         CLOUDY    76  61  59 N16       30.08R
CANADIAN       CLOUDY    73  68  84 SW6       30.02F
DALHART        CLOUDY    74  59  59 N25G32    30.17R
DUMAS          MOCLDY    72  61  68 N23G35    30.13R
GUYMON         NOT AVBL
HEREFORD       MOCLDY    83  66  55 N15       30.10F
PAMPA          CLOUDY    73  63  70 NW13      30.07F
PERRYTON       CLOUDY    72  67  86 NW17      30.03F
$$

SOUTHERN PANHANDLE/SOUTH PLAINS/ROLLING PLAINS

CITY           SKY/WX    TMP DP  RH WIND       PRES   REMARKS
LUBBOCK        MOSUNNY   91  63  39 NW9       30.03F
SNYDER         MOSUNNY   91  64  39 S16       29.98F
CHILDRESS      MOSUNNY   80  69  69 VRB3      30.01F
SEMINOLE       CLEAR     97  52  21 N7        30.01F HAZE
$$

PERMIAN BASIN

CITY           SKY/WX    TMP DP  RH WIND       PRES   REMARKS
MIDLAND        SUNNY     98  55  23 SW8       29.99F
ODESSA         SUNNY     96  50  20 SW9G16    30.00F
WINK           MOSUNNY  101  50  18 SW10      29.95F
$$

FAR WEST/SOUTHWEST MOUNTAINS/TRANS PECOS

CITY           SKY/WX    TMP DP  RH WIND       PRES   REMARKS
ALPINE         CLEAR     94  51  23 S10       30.17F
DRYDEN           N/A     99  53  21 MISG      29.96F
EL PASO        MOSUNNY   95  54  25 N9        30.07F
FORT STOCKTON  PTSUNNY   98  49  18 NW7       29.98F
GUADALUPE PASS SUNNY     91  52  26 W21G30    30.20F
MARFA          MOSUNNY   90  52  27 CALM      30.17F
PECOS          CLEAR    100  52  19 S5        29.93F
$$

DALLAS/FORT WORTH METROPLEX

CITY           SKY/WX    TMP DP  RH WIND       PRES   REMARKS
DFW AIRPORT    PTSUNNY   86  69  56 SE14      30.01F
FTW MEACHAM    PTSUNNY   84  72  67 SE13G20   29.99F
DAL-EXECUTIVE  CLOUDY    85  71  63 SE13      30.01F
GRAND PRAIRIE  MOSUNNY   82  70  65 SE12G17   30.03F
ADDISON        PTSUNNY   84  66  54 SE14G20   30.03F
MESQUITE       PTCLDY    82  70  65 SE7       30.04F
LANCASTER      MOCLDY    85  71  61 SE10      30.03F
$$

NORTH CENTRAL TEXAS

CITY           SKY/WX    TMP DP  RH WIND       PRES   REMARKS
SHRMAN/DENISON CLOUDY    76  71  83 E9        30.05F
GAINESVILLE    CLOUDY    77  70  79 SE16      30.04F
BRIDGEPORT     CLOUDY    83  64  51 SE10      30.00F
DENTON         CLOUDY    82  68  62 SE14      30.00F
WAXAHACHIE     MOCLDY    85  69  60 SE7G20    30.03F
GRANBURY       MOCLDY    92  63  38 SE9       30.00F
$$

WESTERN NORTH TEXAS

CITY           SKY/WX    TMP DP  RH WIND       PRES   REMARKS
WICHITA FALLS  CLOUDY    79  72  79 SE14      29.97F
VERNON         MOCLDY    78  70  75 SE8       29.99S
BRECKENRIDGE   MOCLDY    94  55  26 S17G26    29.96F HAZE
COMANCHE       PTSUNNY   93  56  28 S15       29.99F
$$

CENTRAL AND SOUTH CENTRAL TEXAS

CITY           SKY/WX    TMP DP  RH WIND       PRES   REMARKS
AUSTIN/BERGSTM PTSUNNY   94  64  37 S12G20    29.99F
WACO           MOSUNNY   91  71  51 S17       30.00F
HILLSBORO      MOCLDY    91  68  47 S10G17    30.01F
TEMPLE         MOSUNNY   90  70  51 S15       30.01F
KILLEEN-GRAY   MOSUNNY   91  68  46 SE10G20   30.00F
FORT HOOD      SUNNY     94  68  42 SE12G22   30.00F
GEORGETOWN     SUNNY     91  66  43 S13       30.01F
LAGO VISTA     FAIR      92  61  35 S14       30.03F
SAN MARCOS     SUNNY     93  63  36 SE14G21   30.01
NEW BRAUNFELS  SUNNY     95  60  31 S12       29.98F
RANDOLPH AFB   PTSUNNY   94  59  30 SW12      29.99F
SAN ANTONIO    PTSUNNY   93  64  38 SE8       30.00F
STINSON        SUNNY     94  62  34 S8        29.97F
PLEASANTON     NOT AVBL
LA GRANGE      MOSUNNY   92  73  52 SE5       29.99F
GIDDINGS       MOCLDY    91  69  48 S5        30.05F
$$

EAST TEXAS

CITY           SKY/WX    TMP DP  RH WIND       PRES   REMARKS
PARIS          CLOUDY    72  64  78 SE5       30.09F
CLARKSVILLE    CLOUDY    74  71  89 CALM      30.10F
TYLER          PTSUNNY   84  69  60 SE8       30.06F
LONGVIEW       PTSUNNY   84  68  58 SE5       30.06F
PALESTINE      NOT AVBL
NACOGDOCHES    MOSUNNY   86  70  58 S7        30.07F
$$

TEXAS HILL COUNTRY AND EDWARDS PLATEAU

CITY           SKY/WX    TMP DP  RH WIND       PRES   REMARKS
LLANO          PTCLDY    99  55  23 S9G20     30.01F
HORSESHOE BAY  FAIR      94  54  26 S12G17    30.00F
KERRVILLE      SUNNY     94  53  24 S13G20    30.02F
FREDERICKSBRG  MOSUNNY   92  52  26 S12G20    30.03F
ROCKSPRINGS    PTCLDY    91  57  31 S15       30.06F
HONDO          SUNNY     93  59  31 S15       30.00F
UVALDE         CLEAR     97  58  27 S9        29.98F
DEL RIO        SUNNY     98  58  26 SE14G21   29.93F
$$

SOUTHEAST TEXAS

CITY           SKY/WX    TMP DP  RH WIND       PRES   REMARKS
COLLEGE STN    MOSUNNY   90  72  55 SE9       30.02F
CALDWELL       MOCLDY    90  70  51 S8        30.04F
CROCKETT       PTCLDY    90  73  58 E6        30.07F
BRENHAM        PTSUNNY   91  71  52 E7        30.02F
HUNTSVILLE     PTSUNNY   89  69  51 VRB3      30.03F
CONROE         MOSUNNY   88  72  58 VRB5      30.03F
HOUSTON BUSH   PTSUNNY   91  70  49 SE8       30.01F
HOUSTON HOBBY  MOSUNNY   92  71  50 E8        30.01F
PERLAND        MOSUNNY   91  71  51 SE10      30.02F
WHARTON        PTCLDY    93  71  47 SE8       30.01F
$$

THE UPPER TEXAS COAST

CITY           SKY/WX    TMP DP  RH WIND       PRES   REMARKS
ORANGE         PTCLDY    87  67  51 SE3       30.05F
PORT ARTHUR    MOSUNNY   89  70  53 MISG      30.03F
GALVESTON      MOSUNNY   89  74  60 SE9       30.03F
ANGLETON       MOSUNNY   89  73  59 VRB3      30.01F
BAY CITY       CLEAR     93  73  51 SE9       30.00F
$$

TEXAS COASTAL BEND, RIO GRANDE PLAINS DEEP SOUTH TEXAS

CITY           SKY/WX    TMP DP  RH WIND       PRES   REMARKS
VICTORIA       SUNNY     96  66  37 S8G21     29.99F
BEEVILLE       FAIR      98  60  28 SE9G20    29.97F
ROCKPORT       SUNNY     90  71  53 SE14G20   29.99F
PORT ARANSAS   CLEAR     86  75  70 SE9       30.00F
PORT LAVACA    PTCLDY    91  70  49 S8G17     29.99F
CORPUS CHRISTI MOSUNNY   95  71  45 SE12G24   29.98F
KINGSVILLE NAS MOSUNNY   99  73  43 SE15G22   29.95F
COTULLA        SUNNY    100  55  22 SE9G23    29.95F
LAREDO         MOSUNNY   99  64  31 S12G18    29.96F
BROWNSVILLE    MOSUNNY   96  73  47 SE21G26   29.96F
PORT ISABEL    MOSUNNY   91  75  59 E24G31    29.95F
HEBBRONVILLE   CLEAR     98  58  26 E9        29.96F
MCALLEN        SUNNY    101  59  24 S10G16    29.94F
WESLACO        SUNNY    100  64  30 S13G18    29.93F
FALFURRIAS     CLEAR     88  55  32 SE8       29.94F
EDINBURG       CLEAR    101  58  24 S12G20    29.94F
$$




U.S. Dept. of Commerce
NOAA National Weather Service
1325 East West Highway
Silver Spring, MD 20910
E-mail: w-nws.webmaster@noaa.gov
Page last modified: May 16, 2007
NATIONAL WEATHER SERVICE: for Safety, for Work, for Fun - FOR LIFE